Home > Weather > Bocholt > Past weeks

Flag for Germany Weather for the Past 2 Weeks in Bocholt, North Rhine-Westphalia, Germany

Now
45 °F

Partly sunny.


Feels Like: 43 °F
Forecast: 41 / 58 °F
Wind: 3 mph from North

Location: Niederrhein

Current Time: Apr 30, 2016 at 9:41:41 AM

Latest Report: Apr 30, 2016 at 8:50 AM


Visibility: N/A

Pressure: 30.04 "Hg

Humidity: 87%

Dew Point: 41 °F

Location of BocholtLocation

Historic Weather in Bocholt — Graph

°F

Bocholt Temperature Yesterday

Maximum temperature yesterday: 48 °F (at 9:20 AM)
Minimum temperature yesterday: 41 °F (at 5:20 AM)
Average temperature yesterday: 46 °F

High & Low Weather Summary for the Past Weeks

 TemperatureHumidityPressure
High63 °F (Apr 21, 2:50 PM)100% (Apr 18, 5:50 AM)30.48 "Hg (Apr 18, 5:50 AM)
Low32 °F (Apr 18, 5:50 AM)39% (Apr 21, 6:20 PM)29.45 "Hg (Apr 16, 4:50 AM)
Average47 °F70%29.94 "Hg
* Reported Apr 15 8:20 AM — Apr 30 8:20 AM, Bocholt, Weather by CustomWeather, © 2016

Note: Actual official high and low records may vary slightly from our data, if they occured in-between our weather recording intervals... More about our weather records

Advertising

Bocholt Weather History for the Previous 24 Hours

Scroll right to see more
 ConditionsComfort  
Time TempWeatherWind HumidityBarometerVisibility
8:20 AM
Sat, Apr 30
45 °FScattered clouds.3 mph87%30.04 "HgN/A
7:50 AM45 °FPassing clouds.3 mph87%30.04 "HgN/A
7:20 AM43 °FLight rain. Passing clouds.5 mph93%30.04 "HgN/A
6:50 AM43 °FPassing clouds.5 mph93%30.01 "HgN/A
6:20 AM43 °FPartly cloudy.7 mph93%30.01 "HgN/A
5:50 AM43 °FLight rain. Passing clouds.6 mph93%30.01 "Hg6 mi
5:20 AM43 °FLight rain. Passing clouds.6 mph93%30.01 "HgN/A
4:50 AM43 °FLight rain. Passing clouds.6 mph93%30.01 "HgN/A
11:50 PM
Fri, Apr 29
45 °FClear.7 mph87%29.98 "Hg10 mi
11:20 PM45 °FPassing clouds.7 mph87%29.98 "HgN/A
10:50 PM45 °FPassing clouds.8 mph87%29.98 "HgN/A
10:20 PM45 °FSunny.8 mph93%29.98 "Hg10 mi
9:50 PM45 °FPassing clouds.8 mph87%29.98 "HgN/A
9:20 PM45 °FPassing clouds.8 mph93%29.95 "HgN/A
8:50 PM45 °FSunny.8 mph93%29.95 "Hg10 mi
8:20 PM46 °FSunny.9 mph87%29.95 "Hg10 mi
7:50 PM46 °FPassing clouds.10 mph87%29.95 "HgN/A
7:20 PM46 °FPassing clouds.10 mph87%29.95 "HgN/A
6:50 PM46 °FScattered clouds.9 mph87%29.95 "HgN/A
6:20 PM46 °FScattered clouds.8 mph87%29.95 "HgN/A
5:50 PM46 °FLight rain. Partly sunny.9 mph87%29.95 "HgN/A
5:20 PM45 °FLight rain. Partly sunny.9 mph87%29.95 "Hg6 mi
4:50 PM45 °FLight rain. Partly sunny.10 mph87%29.95 "Hg4 mi
4:20 PM45 °FLight rain. Partly sunny.12 mph87%29.95 "HgN/A
3:50 PM46 °FSprinkles. Scattered clouds.13 mph82%29.95 "HgN/A
3:20 PM46 °FSprinkles. Scattered clouds.10 mph82%29.95 "HgN/A
2:50 PM48 °FPartly sunny.9 mph76%29.95 "HgN/A
2:20 PM48 °FPartly sunny.13 mph76%29.92 "HgN/A
1:50 PM48 °FSunny.12 mph76%29.92 "Hg10 mi
1:20 PM46 °FPassing clouds.8 mph87%29.92 "HgN/A
12:50 PM46 °FLight rain. Partly sunny.10 mph82%29.92 "Hg6 mi
12:20 PM46 °FLight rain. Partly sunny.13 mph76%29.92 "HgN/A
11:50 AM46 °FLight rain. Partly sunny.14 mph82%29.92 "HgN/A
11:20 AM46 °FLight rain. Partly sunny.10 mph76%29.92 "HgN/A
10:50 AM48 °FLight rain. Partly sunny.16 mph66%29.89 "HgN/A
10:20 AM48 °FPartly sunny.15 mph66%29.89 "HgN/A
9:50 AM48 °FPartly sunny.17 mph66%29.89 "HgN/A
9:20 AM48 °FScattered clouds.16 mph66%29.89 "HgN/A
Weather by CustomWeather, © 2016

See weather overviewHow to use our weather pages